World > North America > United States > North Carolina > Oak Ridge  

Oak Ridge, NC Hourly Weather Updates

Feedback E-mail the Weather

Quick Clicks

Oak Ridge, NC Weather Maps

°F °C°F °C
Oak Ridge Weather Map
UTC Time: 7/12/2024, 17:43
Your Time:

Oak Ridge, NC Regional Weather

Expires:202407121800;;901592
ASUS42 KRAH 121710
RWRRAH
NORTH CAROLINA WEATHER ROUNDUP
NATIONAL WEATHER SERVICE RALEIGH NC
100 PM EDT FRI JUL 12 2024

NOTE: "FAIR" INDICATES FEW OR NO CLOUDS BELOW 12,000 FEET WITH NO
SIGNIFICANT WEATHER AND/OR OBSTRUCTIONS TO VISIBILITY.


NCZ021-022-025-041-071-084-088-121800-
CENTRAL NORTH CAROLINA
  
CITY           SKY/WX    TMP DP  RH WIND       PRES   REMARKS
CHARLOTTE      PTSUNNY   78  74  87 VRB6      30.12S                  
GREENSBORO     CLOUDY    77  70  79 NE15      30.13S                  
WINSTON-SALEM  CLOUDY    76  70  82 N10       30.15F                  
RALEIGH-DURHAM TSTM      77  75  93 SW13      30.11R FOG              
FORT LIBERTY   TSTM      77  76  95 S6        30.08R VSB 7/8          
FAYETTEVILLE   LGT RAIN  78  76  93 W5        30.08S FOG              
BURLINGTON     CLOUDY    76  72  87 N12       30.12R                  
ROXBORO        LGT RAIN  72  70  94 NE9       30.15F                  
HENDERSON      NOT AVBL                                               
LOUISBURG      RAIN      77  75  94 NE6       30.13F                  
LAURINBURG     TSTM      73  71  93 S3        30.09F FOG              
$$
 

SKY/WX - Weather  TMP - Temperature  DP - Dew Point  RH - Humidity
WIND - Wind Direction/Speed PRES - Barometric Pressure VSB - Visibility
WCI - Wind Chill Index E13G22 Wind - East Wind 13 mph/Gusts of 22 mph

Trending Headlines

Trending Entertainment Headlines

Oak Ridge Radar Loop

Use the map search tool if you want to place a location marker on the radar map...

Oak Ridge Quick Facts

National Two Day Weather Forecast


E-mail the Oak Ridge Weather Forecast

Voice your opinion or tell us about page issues...